Flag for Vatican City State Weather past 2 weeks in Vatican City, Vatican City State

Now
46 °F

Light rain. Partly cloudy.


Feels Like: 44 °F
Forecast: 28 / 44 °F
Wind: 5 mph from South

Location: Rome / Ciampino

Current Time: Dec 28, 2014 at 4:14:26 AM

Latest Report: Dec 28, 2014 at 3:45 AM


Visibility: N/A

Pressure: 29.42 "Hg

Humidity: 93%

Dew point: 45 °F

Location of Vatican CityLocation

Historic Weather in Vatican City — Graph

°F

Vatican City temperature yesterday

Maximum temperature yesterday: 52 °F (at 9:15 PM)
Minimum temperature yesterday: 32 °F (at 6:15 AM)
Average temperature yesterday: 44 °F

Past Weeks' High & Low Weather Summary

 TemperatureHumidityPressure
High63 °F (Dec 13, 1:15 PM)100% (Dec 16, 9:15 AM)30.48 "Hg (Dec 16, 9:15 AM)
Low32 °F (Dec 27, 6:15 AM)32% (Dec 27, 12:15 PM)29.45 "Hg (Dec 28, 2:45 AM)
Average51 °F79%30.14 "Hg
* Reported Dec 13 2:15 AM — Dec 28 2:45 AM, Vatican City, Weather by CustomWeather, © 2014

Note: Actual official high and low records may vary slightly from our data, if they occured in-between our weather recording intervals... More about our weather records

Advertising

Vatican City weather history for previous 24 hours

 ConditionsComfort  
Time TempWeatherWind HumidityBarometerVisibility
2:45 AM
Dec 28
46 °FLight rain. Passing clouds.5 mph87%29.45 "HgN/A
2:15 AM46 °FLight rain. Partly cloudy.No wind87%29.47 "HgN/A
1:45 AM46 °FLight rain. Partly cloudy.No wind93%29.47 "HgN/A
1:15 AM46 °FPassing clouds.3 mph93%29.47 "HgN/A
12:15 AM50 °FLight rain. Passing clouds.12 mph88%29.47 "Hg5 mi
11:45 PM
Dec 27
52 °FPassing clouds.12 mph94%29.47 "HgN/A
11:15 PM52 °FPassing clouds.14 mph88%29.50 "HgN/A
10:45 PM50 °FLight rain. Passing clouds.14 mph94%29.50 "HgN/A
10:15 PM52 °FLight rain. Passing clouds.15 mph88%29.50 "Hg5 mi
9:45 PM52 °FRain. Partly cloudy.15 mph88%29.53 "Hg4 mi
9:15 PM52 °FLight rain. Passing clouds.21 mph82%29.53 "HgN/A
8:45 PM48 °FLight rain. Passing clouds.17 mph94%29.56 "HgN/A
8:15 PM48 °FLight rain. Passing clouds.21 mph87%29.59 "HgN/A
7:45 PM48 °FLight rain. Passing clouds.20 mph87%29.59 "HgN/A
7:15 PM48 °FLight rain. Passing clouds.21 mph87%29.65 "HgN/A
6:45 PM46 °FLight rain. Passing clouds.22 mph87%29.68 "HgN/A
6:15 PM45 °FLight rain. Passing clouds.20 mph87%29.71 "HgN/A
5:45 PM45 °FLight rain. Passing clouds.20 mph87%29.74 "HgN/A
5:15 PM45 °FLight rain. Passing clouds.16 mph81%29.77 "Hg5 mi
4:45 PM46 °FLight rain. Passing clouds.15 mph66%29.77 "Hg5 mi
4:15 PM48 °FLight rain. Scattered clouds.16 mph58%29.80 "HgN/A
3:45 PM48 °FScattered clouds.16 mph58%29.83 "HgN/A
3:15 PM48 °FScattered clouds.15 mph62%29.86 "HgN/A
2:45 PM48 °FScattered clouds.17 mph62%29.86 "HgN/A
2:15 PM48 °FScattered clouds.17 mph62%29.86 "HgN/A
1:45 PM50 °FScattered clouds.16 mph50%29.89 "HgN/A
1:15 PM50 °FScattered clouds.15 mph50%29.92 "HgN/A
12:45 PM50 °FPartly sunny.13 mph43%29.95 "HgN/A
12:15 PM50 °FScattered clouds.9 mph32%29.98 "HgN/A
11:45 AM48 °FScattered clouds.9 mph34%30.01 "HgN/A
11:15 AM45 °FScattered clouds.No wind61%30.04 "HgN/A
10:45 AM43 °FPassing clouds.No wind61%30.04 "HgN/A
10:15 AM41 °FSunny.No wind66%30.07 "Hg10 mi
9:15 AM37 °FSunny.2 mph75%30.07 "Hg10 mi
8:45 AM36 °FPassing clouds.6 mph81%30.07 "HgN/A
8:15 AM34 °FSunny.5 mph75%30.09 "Hg10 mi
7:45 AM34 °FSunny.6 mph81%30.09 "Hg10 mi
7:15 AM32 °FClear.3 mph80%30.09 "Hg10 mi
6:45 AM34 °FClear.5 mph75%30.09 "Hg10 mi
6:15 AM32 °FClear.6 mph75%30.09 "Hg10 mi
5:45 AM34 °FClear.6 mph81%30.07 "Hg10 mi
5:15 AM36 °FClear.No wind70%30.07 "Hg10 mi
4:15 AM37 °FClear.3 mph60%30.07 "Hg10 mi
Weather by CustomWeather, © 2014

See weather overviewHow to use our weather pages